• En España
  • Lista de países
  • Para 7 días
  • Temperatura del agua
  • Mapa Satelital
  • El tiempo en el mapa
  • Informadores
  • user-avatar
    Iniciar sesión

    Tiempo cada hora Chemercy

    Hoy, 15 Agosto, Miércoles

    Tiempo Temperatura Precipitaciones Viento Presión Humedad
    00:00 +14°C° 0 mm 2 mps 752 mmHg 80%
    01:00 +13°C° 0 mm 2 mps 752 mmHg 80%
    02:00 +13°C° 0 mm 2 mps 752 mmHg 80%
    03:00 +13°C° 0 mm 2 mps 753 mmHg 80%
    04:00 +13°C° 0 mm 2 mps 753 mmHg 81%
    05:00 +14°C° 0 mm 2 mps 753 mmHg 81%
    06:00 +14°C° 0 mm 2 mps 754 mmHg 81%
    07:00 +16°C° 0 mm 3 mps 754 mmHg 75%
    08:00 +18°C° 0 mm 3 mps 754 mmHg 70%
    09:00 +20°C° 0 mm 3 mps 754 mmHg 65%
    10:00 +21°C° 0 mm 3 mps 754 mmHg 60%
    11:00 +22°C° 0 mm 4 mps 754 mmHg 56%
    12:00 +23°C° 0 mm 4 mps 754 mmHg 52%
    13:00 +24°C° 0 mm 3 mps 754 mmHg 53%
    14:00 +24°C° 0 mm 3 mps 754 mmHg 54%
    15:00 +24°C° 0 mm 3 mps 753 mmHg 56%
    16:00 +23°C° 0 mm 2 mps 753 mmHg 60%
    17:00 +21°C° 0 mm 2 mps 753 mmHg 64%
    18:00 +21°C° 0 mm 2 mps 753 mmHg 67%
    19:00 +20°C° 0 mm 2 mps 753 mmHg 70%
    20:00 +18°C° 0 mm 3 mps 753 mmHg 72%
    21:00 +17°C° 0 mm 3 mps 753 mmHg 75%
    22:00 +17°C° 0 mm 4 mps 752 mmHg 75%
    23:00 +17°C° 0 mm 4 mps 752 mmHg 76%

    Mañana, 16 Agosto, Jueves

    Tiempo Temperatura Precipitaciones Viento Presión Humedad
    00:00 +17°C° 0 mm 4 mps 751 mmHg 76%
    01:00 +16°C° 0,3 mm 5 mps 751 mmHg 78%
    02:00 +16°C° 0,3 mm 5 mps 751 mmHg 80%
    03:00 +16°C° 0,3 mm 5 mps 750 mmHg 82%
    04:00 +16°C° 0,1 mm 5 mps 750 mmHg 82%
    05:00 +17°C° 0,1 mm 5 mps 750 mmHg 83%
    06:00 +17°C° 0,1 mm 5 mps 750 mmHg 83%
    07:00 +19°C° 0,2 mm 6 mps 750 mmHg 82%
    08:00 +20°C° 0,2 mm 6 mps 750 mmHg 80%
    09:00 +21°C° 0,2 mm 6 mps 750 mmHg 79%
    10:00 +22°C° 0,1 mm 6 mps 750 mmHg 77%
    11:00 +23°C° 0,1 mm 6 mps 750 mmHg 75%
    12:00 +24°C° 0,1 mm 6 mps 750 mmHg 72%
    13:00 +24°C° 0,3 mm 6 mps 750 mmHg 71%
    14:00 +25°C° 0,3 mm 5 mps 750 mmHg 70%
    15:00 +26°C° 0,3 mm 5 mps 750 mmHg 69%
    16:00 +25°C° 0,2 mm 4 mps 750 mmHg 73%
    17:00 +23°C° 0,2 mm 4 mps 750 mmHg 77%
    18:00 +22°C° 0,2 mm 3 mps 751 mmHg 81%
    19:00 +21°C° 0,1 mm 3 mps 751 mmHg 85%
    20:00 +19°C° 0,1 mm 2 mps 751 mmHg 89%
    21:00 +18°C° 0,1 mm 2 mps 751 mmHg 93%
    22:00 +17°C° 0 mm 2 mps 751 mmHg 94%
    23:00 +17°C° 0 mm 2 mps 752 mmHg 95%

    Pasado mañana, 17 Agosto, Viernes

    Tiempo Temperatura Precipitaciones Viento Presión Humedad
    00:00 +16°C° 0 mm 2 mps 752 mmHg 95%
    01:00 +16°C° 0 mm 2 mps 752 mmHg 95%
    02:00 +15°C° 0 mm 2 mps 752 mmHg 94%
    03:00 +15°C° 0 mm 2 mps 753 mmHg 93%
    04:00 +15°C° 0 mm 2 mps 753 mmHg 92%
    05:00 +15°C° 0 mm 2 mps 753 mmHg 91%
    06:00 +15°C° 0 mm 2 mps 753 mmHg 90%
    07:00 +17°C° 0 mm 2 mps 753 mmHg 85%
    08:00 +18°C° 0 mm 3 mps 754 mmHg 80%
    09:00 +19°C° 0 mm 3 mps 754 mmHg 74%
    10:00 +20°C° 0,1 mm 3 mps 754 mmHg 70%
    11:00 +21°C° 0,1 mm 3 mps 754 mmHg 65%
    12:00 +22°C° 0,1 mm 3 mps 754 mmHg 60%
    13:00 +22°C° 0,2 mm 4 mps 754 mmHg 59%
    14:00 +22°C° 0,2 mm 4 mps 754 mmHg 58%
    15:00 +22°C° 0,2 mm 4 mps 754 mmHg 56%
    16:00 +21°C° 0 mm 4 mps 754 mmHg 61%
    17:00 +20°C° 0 mm 4 mps 754 mmHg 65%
    18:00 +19°C° 0 mm 3 mps 755 mmHg 70%
    19:00 +17°C° 0 mm 3 mps 755 mmHg 74%
    20:00 +16°C° 0 mm 3 mps 755 mmHg 78%
    21:00 +13°C° 0 mm 3 mps 755 mmHg 82%
    22:00 +13°C° 0 mm 3 mps 755 mmHg 84%
    23:00 +12°C° 0 mm 3 mps 755 mmHg 85%

    18 Agosto, Sábado

    Tiempo Temperatura Precipitaciones Viento Presión Humedad
    00:00 +12°C° 0 mm 3 mps 756 mmHg 87%
    01:00 +11°C° 0 mm 4 mps 756 mmHg 88%
    02:00 +11°C° 0 mm 4 mps 756 mmHg 89%
    03:00 +10°C° 0 mm 4 mps 756 mmHg 90%
    04:00 +11°C° 0 mm 4 mps 757 mmHg 89%
    05:00 +11°C° 0 mm 4 mps 757 mmHg 87%
    06:00 +11°C° 0 mm 4 mps 757 mmHg 86%
    07:00 +13°C° 0 mm 5 mps 757 mmHg 80%
    08:00 +14°C° 0 mm 5 mps 758 mmHg 74%
    09:00 +16°C° 0 mm 5 mps 758 mmHg 68%
    10:00 +17°C° 0 mm 5 mps 758 mmHg 64%
    11:00 +19°C° 0 mm 5 mps 758 mmHg 61%
    12:00 +20°C° 0 mm 5 mps 758 mmHg 57%
    13:00 +20°C° 0 mm 5 mps 758 mmHg 57%
    14:00 +20°C° 0 mm 5 mps 758 mmHg 56%
    15:00 +20°C° 0 mm 5 mps 758 mmHg 56%
    16:00 +19°C° 0 mm 4 mps 758 mmHg 61%
    17:00 +18°C° 0 mm 4 mps 758 mmHg 66%
    18:00 +17°C° 0 mm 3 mps 758 mmHg 70%
    19:00 +16°C° 0 mm 3 mps 758 mmHg 74%
    20:00 +13°C° 0 mm 3 mps 758 mmHg 77%
    21:00 +12°C° 0 mm 3 mps 758 mmHg 81%
    22:00 +13°C° 0 mm 2 mps 759 mmHg 82%
    23:00 +12°C° 0 mm 2 mps 759 mmHg 83%

    19 Agosto, Domingo

    Tiempo Temperatura Precipitaciones Viento Presión Humedad
    00:00 +12°C° 0 mm 2 mps 759 mmHg 84%
    01:00 +10°C° 0 mm 2 mps 759 mmHg 85%
    02:00 +10°C° 0 mm 2 mps 759 mmHg 86%
    03:00 +9°C° 0 mm 2 mps 759 mmHg 87%
    04:00 +10°C° 0 mm 2 mps 759 mmHg 86%
    05:00 +10°C° 0 mm 2 mps 759 mmHg 84%
    06:00 +12°C° 0 mm 2 mps 759 mmHg 83%
    07:00 +14°C° 0 mm 2 mps 759 mmHg 76%
    08:00 +16°C° 0 mm 2 mps 759 mmHg 69%
    09:00 +18°C° 0 mm 2 mps 759 mmHg 62%
    10:00 +19°C° 0 mm 2 mps 759 mmHg 58%
    11:00 +19°C° 0 mm 2 mps 759 mmHg 53%
    12:00 +20°C° 0 mm 2 mps 758 mmHg 49%
    13:00 +21°C° 0 mm 2 mps 758 mmHg 49%
    14:00 +21°C° 0 mm 2 mps 758 mmHg 48%
    15:00 +21°C° 0 mm 2 mps 758 mmHg 47%
    16:00 +22°C° 0 mm 1 mps 757 mmHg 53%
    17:00 +21°C° 0 mm 1 mps 757 mmHg 58%
    18:00 +20°C° 0 mm 1 mps 757 mmHg 63%
    19:00 +18°C° 0 mm 1 mps 757 mmHg 66%
    20:00 +16°C° 0 mm 1 mps 757 mmHg 68%
    21:00 +14°C° 0 mm 1 mps 757 mmHg 71%
    22:00 +14°C° 0 mm 1 mps 757 mmHg 72%
    23:00 +14°C° 0 mm 1 mps 757 mmHg 74%

    20 Agosto, Lunes

    Tiempo Temperatura Precipitaciones Viento Presión Humedad
    00:00 +13°C° 0 mm 1 mps 757 mmHg 75%
    01:00 +13°C° 0 mm 1 mps 757 mmHg 77%
    02:00 +13°C° 0 mm 1 mps 757 mmHg 78%
    03:00 +12°C° 0 mm 1 mps 757 mmHg 80%
    04:00 +13°C° 0 mm 1 mps 756 mmHg 79%
    05:00 +13°C° 0 mm 1 mps 756 mmHg 79%
    06:00 +14°C° 0 mm 1 mps 756 mmHg 79%
    07:00 +16°C° 0 mm 1 mps 756 mmHg 73%
    08:00 +18°C° 0 mm 2 mps 756 mmHg 68%
    09:00 +19°C° 0 mm 2 mps 756 mmHg 62%
    10:00 +20°C° 0 mm 2 mps 756 mmHg 59%
    11:00 +21°C° 0 mm 2 mps 755 mmHg 55%
    12:00 +24°C° 0 mm 3 mps 755 mmHg 51%
    13:00 +24°C° 0 mm 3 mps 755 mmHg 51%
    14:00 +24°C° 0 mm 3 mps 754 mmHg 51%
    15:00 +24°C° 0 mm 3 mps 754 mmHg 51%
    16:00 +22°C° 0 mm 3 mps 754 mmHg 56%
    17:00 +21°C° 0 mm 3 mps 754 mmHg 62%
    18:00 +20°C° 0 mm 2 mps 753 mmHg 68%
    19:00 +19°C° 0 mm 2 mps 753 mmHg 70%
    20:00 +17°C° 0 mm 2 mps 753 mmHg 73%
    21:00 +16°C° 0 mm 2 mps 753 mmHg 76%
    22:00 +15°C° 0 mm 2 mps 753 mmHg 78%
    23:00 +15°C° 0 mm 2 mps 753 mmHg 79%
    Mostrar más